Weather in Ul'yanovka

Russia / Saint-Petersburg and Leningrad Oblast     59°38′10″N   30°45′28″E
temp.,
°C
wind,
m/s
gust,
m/s
humid.,
%
clouds,
%
prec.,
mm/h
press.,
hPa
HPBL,
m
12 may, wed
wed1200:00+12sse26815 0.0 1023112
03:00+11sse29890 0.0 1024174
06:00+11sse28810 0.0 1023177
09:00+18s36560 0.0 1023420
12:00+23sse46460 0.0 10231106
15:00+24s46395 0.0 10221715
18:00+24s35450 0.0 10211812
21:00+17sse00693 0.0 102011
13 may, thu
thu1300:00+17ene237327 0.0 101958
03:00+13e210810 0.0 1018192
06:00+14ese411805 0.0 1017420
09:00+17se476861 0.0 10171079
12:00+18sse476120 0.2 10161330
15:00+21sse46335 0.2 10152216
18:00+21se353618 0.0 10142248
21:00+15e226195 0.0 101332
14 may, fri
fri1400:00+14e2363100 0.0 101262
03:00+13nne1181100 0.3 101116
06:00+12se1191100 0.9 101026
09:00+14s248199 0.9 1011361
12:00+17ssw456456 0.4 10121090
15:00+20s463620 0.4 10112092
18:00+19s455038 0.0 10111590
21:00+14sse2374100 0.0 101257
15 may, sat
sat1500:00+12ese228066 0.0 101139
03:00+11e268663 0.0 1010113
06:00+12e31080100 0.0 1009283
09:00+12e31189100 1.0 1008418
12:00+16ese4884100 1.1 1007812
15:00+16se2590100 3.4 1006514
18:00+17sw138874 0.3 1005320
21:00+14nnw019336 0.4 100410
16 may, sun
sun1600:00+12w1196100 0.0 100410
03:00+11sw2396100 0.0 100448
06:00+12wsw2595100 0.0 1005161
09:00+12wnw4792100 0.0 1007537
12:00+13w4783100 0.1 1009735
15:00+16w4766100 0.3 10101318
18:00+16w476155 0.1 10121173
21:00+11wnw22852 0.1 101422